User: anonymous   Login
Location: Cran-Gévrier
(45.9039°N, 6.1012°E)
Time: 04:49:12
(UTC+00:00)
Language:

Cosmos 1943 Rocket - Orbit

View from above orbital plane
View from above orbital plane
View from above satellite
View from above satellite

Ground track
Ground track

The orbit data is extracted from the following two-line orbital elements,

1 19120U 88039B   23150.14148981  .00000023  00000-0  33803-4 0  9994
2 19120  71.0160  53.2960 0019718  96.9378 263.3991 14.19316079814684
Epoch (UTC): 30 May 2023 03:23:44
Eccentricity: 0.0019718
inclination: 71.0160°
perigee height: 813 km
apogee height: 842 km
right ascension of ascending node: 53.2960°
argument of perigee: 96.9378°
revolutions per day: 14.19316079
mean anomaly at epoch: 263.3991°
orbit number at epoch: 81468

The dashed part of the orbit path shows where the satellite is in the earth's shadow,  

DLR